BAW602 EGLL-LIPZ

Flight info

Callsign BAW602
Flight time 1h 39m
Altitude 37000
Route DET1J DET L6 DVR UL9 KONAN UL607 KOK M150 KRH DCT BATUB M738 NATAG/N0447F290 DCT LORLO DCT UNTAD DCT ADOSA L612 ALBET ALBET2E
Aircraft A320/M-SDE3FGIJ1KRWXY/SB1

Departure

Time 2026-05-06 14:17
Airport London Heathrow Airport (EGLL)

Arrival

Time 2026-05-06 15:56
Airport Venice Marco Polo Airport (LIPZ)
Time Latitude Longitude Altitude Speed Heading
2026-05-06 12:36 51.47134 -0.48610 86 ft 0 kts 269°
2026-05-06 14:07 51.47134 -0.48601 91 ft 3 kts 269°
2026-05-06 14:07 51.47134 -0.48569 88 ft 3 kts 269°
2026-05-06 14:07 51.47134 -0.48536 90 ft 3 kts 269°
2026-05-06 14:08 51.47135 -0.48510 90 ft 3 kts 258°
2026-05-06 14:08 51.47140 -0.48485 90 ft 3 kts 223°
2026-05-06 14:08 51.47156 -0.48472 90 ft 2 kts 179°
2026-05-06 14:08 51.47173 -0.48472 88 ft 0 kts 179°
2026-05-06 14:12 51.47168 -0.48472 89 ft 3 kts 179°
2026-05-06 14:12 51.47127 -0.48472 88 ft 9 kts 179°
2026-05-06 14:13 51.47052 -0.48471 89 ft 13 kts 179°
2026-05-06 14:13 51.46949 -0.48470 87 ft 17 kts 179°
2026-05-06 14:13 51.46821 -0.48470 86 ft 20 kts 179°
2026-05-06 14:13 51.46744 -0.48552 87 ft 14 kts 263°
2026-05-06 14:14 51.46739 -0.48700 86 ft 17 kts 259°
2026-05-06 14:14 51.46650 -0.48748 86 ft 11 kts 189°
2026-05-06 14:14 51.46566 -0.48783 86 ft 13 kts 193°
2026-05-06 14:14 51.46491 -0.48739 86 ft 15 kts 127°
2026-05-06 14:15 51.46478 -0.48610 86 ft 0 kts 90°
2026-05-06 14:16 51.46478 -0.48604 86 ft 3 kts 90°
2026-05-06 14:16 51.46480 -0.48055 87 ft 82 kts 90°
2026-05-06 14:16 51.46480 -0.47928 87 ft 90 kts 89°
2026-05-06 14:17 51.46488 -0.46375 92 ft 146 kts 88°
2026-05-06 14:17 51.46522 -0.44329 701 ft 151 kts 87°
2026-05-06 14:17 51.46487 -0.41900 1519 ft 165 kts 103°
2026-05-06 14:17 51.45797 -0.40256 1915 ft 190 kts 128°
2026-05-06 14:18 51.44989 -0.38559 2196 ft 210 kts 119°
2026-05-06 14:18 51.44062 -0.36069 2566 ft 237 kts 117°
2026-05-06 14:18 51.43517 -0.34018 2884 ft 253 kts 100°
2026-05-06 14:18 51.43159 -0.31130 3645 ft 261 kts 99°
2026-05-06 14:19 51.42765 -0.28224 4613 ft 264 kts 99°
2026-05-06 14:19 51.42347 -0.25224 5508 ft 269 kts 99°
2026-05-06 14:19 51.41954 -0.22371 6318 ft 273 kts 99°
2026-05-06 14:19 51.41541 -0.19366 7109 ft 278 kts 99°
2026-05-06 14:20 51.41112 -0.16242 7896 ft 283 kts 99°
2026-05-06 14:20 51.40677 -0.13058 8673 ft 289 kts 101°
2026-05-06 14:20 51.40246 -0.09916 9436 ft 294 kts 101°
2026-05-06 14:20 51.39796 -0.06650 10181 ft 299 kts 100°
2026-05-06 14:21 51.39340 -0.03360 10448 ft 321 kts 101°
2026-05-06 14:21 51.38831 0.00294 10675 ft 343 kts 101°
2026-05-06 14:21 51.38303 0.04067 11141 ft 353 kts 101°
2026-05-06 14:21 51.37769 0.07853 11775 ft 357 kts 102°
2026-05-06 14:22 51.37218 0.11752 12386 ft 362 kts 101°
2026-05-06 14:22 51.36649 0.15793 13059 ft 366 kts 102°
2026-05-06 14:22 51.36101 0.19705 13694 ft 369 kts 102°
2026-05-06 14:22 51.35532 0.23749 14284 ft 373 kts 102°
2026-05-06 14:23 51.34958 0.27793 14815 ft 377 kts 102°
2026-05-06 14:23 51.34364 0.31960 15429 ft 380 kts 102°
2026-05-06 14:23 51.33777 0.36069 16030 ft 382 kts 103°
2026-05-06 14:23 51.33189 0.40188 16558 ft 385 kts 103°
2026-05-06 14:24 51.32594 0.44370 17147 ft 388 kts 103°
2026-05-06 14:24 51.31995 0.48577 17743 ft 390 kts 103°
2026-05-06 14:24 51.31386 0.52814 18315 ft 393 kts 103°
2026-05-06 14:24 51.30766 0.57100 18775 ft 397 kts 103°
2026-05-06 14:25 51.30128 0.61398 19292 ft 399 kts 104°
2026-05-06 14:25 51.29412 0.65686 19816 ft 402 kts 106°
2026-05-06 14:25 51.28633 0.69949 20300 ft 405 kts 107°
2026-05-06 14:25 51.27804 0.74302 20777 ft 408 kts 108°
2026-05-06 14:26 51.26967 0.78659 21266 ft 410 kts 108°
2026-05-06 14:26 51.26145 0.82966 21713 ft 413 kts 107°
2026-05-06 14:26 51.25314 0.87369 22153 ft 416 kts 107°
2026-05-06 14:26 51.24489 0.91801 22587 ft 418 kts 107°
2026-05-06 14:27 51.23666 0.96261 23043 ft 420 kts 108°
2026-05-06 14:27 51.22843 1.00741 23484 ft 423 kts 108°
2026-05-06 14:27 51.22007 1.05275 23850 ft 426 kts 108°
2026-05-06 14:27 51.21165 1.09811 24243 ft 428 kts 108°
2026-05-06 14:28 51.20315 1.14356 24625 ft 429 kts 108°
2026-05-06 14:28 51.19468 1.18858 24995 ft 431 kts 108°
2026-05-06 14:28 51.18604 1.23451 25367 ft 433 kts 108°
2026-05-06 14:28 51.17735 1.28064 25736 ft 435 kts 108°
2026-05-06 14:29 51.16868 1.32671 26085 ft 437 kts 108°
2026-05-06 14:29 51.16218 1.37447 26425 ft 441 kts 98°
2026-05-06 14:29 51.15962 1.42312 26779 ft 443 kts 95°
2026-05-06 14:29 51.15737 1.47233 27135 ft 445 kts 95°
2026-05-06 14:30 51.15498 1.52149 27490 ft 447 kts 95°
2026-05-06 14:30 51.15249 1.57102 27860 ft 449 kts 96°
2026-05-06 14:30 51.15002 1.61997 28180 ft 451 kts 96°
2026-05-06 14:30 51.14753 1.66967 28536 ft 453 kts 95°
2026-05-06 14:31 51.14502 1.71999 28872 ft 455 kts 95°
2026-05-06 14:31 51.14250 1.77016 29264 ft 455 kts 95°
2026-05-06 14:31 51.13996 1.82012 29804 ft 452 kts 95°
2026-05-06 14:31 51.13740 1.86999 30239 ft 452 kts 96°
2026-05-06 14:32 51.13480 1.92006 30654 ft 451 kts 95°
2026-05-06 14:32 51.13225 1.96930 31101 ft 449 kts 96°
2026-05-06 14:32 51.12971 2.01825 31466 ft 449 kts 96°
2026-05-06 14:32 51.12714 2.06762 31887 ft 447 kts 95°
2026-05-06 14:33 51.12455 2.11698 32318 ft 446 kts 95°
2026-05-06 14:33 51.12193 2.16632 32686 ft 446 kts 96°
2026-05-06 14:33 51.11928 2.21530 33132 ft 445 kts 96°
2026-05-06 14:33 51.11658 2.26436 33527 ft 445 kts 95°
2026-05-06 14:34 51.11388 2.31330 33910 ft 444 kts 95°
2026-05-06 14:34 51.11116 2.36217 34270 ft 443 kts 96°
2026-05-06 14:34 51.10841 2.41089 34521 ft 444 kts 96°
2026-05-06 14:34 51.10566 2.45924 34790 ft 444 kts 96°
2026-05-06 14:35 51.10285 2.50823 35085 ft 444 kts 96°
2026-05-06 14:35 51.10003 2.55708 35325 ft 445 kts 96°
2026-05-06 14:35 51.09694 2.60603 35596 ft 444 kts 100°
2026-05-06 14:35 51.09026 2.65378 35849 ft 443 kts 109°
2026-05-06 14:36 51.07909 2.69920 36062 ft 441 kts 118°
2026-05-06 14:36 51.06473 2.74240 36308 ft 441 kts 120°
2026-05-06 14:36 51.05044 2.78494 36558 ft 441 kts 119°
2026-05-06 14:36 51.03604 2.82797 36784 ft 442 kts 120°
2026-05-06 14:37 51.02162 2.87111 36924 ft 443 kts 120°
2026-05-06 14:37 51.00713 2.91451 36947 ft 449 kts 120°
2026-05-06 14:37 50.97770 3.00275 36940 ft 453 kts 120°
2026-05-06 14:38 50.94809 3.09094 36932 ft 454 kts 120°
2026-05-06 14:38 50.91836 3.17895 36926 ft 453 kts 120°
2026-05-06 14:39 50.88870 3.26663 36918 ft 453 kts 120°
2026-05-06 14:39 50.85888 3.35459 36920 ft 454 kts 120°
2026-05-06 14:40 50.82895 3.44233 36918 ft 454 kts 120°
2026-05-06 14:40 50.79881 3.53030 36919 ft 454 kts 120°
2026-05-06 14:41 50.76876 3.61772 36915 ft 454 kts 120°
2026-05-06 14:41 50.73882 3.70486 36917 ft 454 kts 120°
2026-05-06 14:42 50.70860 3.79241 36908 ft 454 kts 120°
2026-05-06 14:42 50.67850 3.87923 36913 ft 454 kts 121°
2026-05-06 14:43 50.64805 3.96666 36911 ft 454 kts 121°
2026-05-06 14:43 50.61759 4.05361 36912 ft 453 kts 121°
2026-05-06 14:44 50.58732 4.13999 36907 ft 454 kts 121°
2026-05-06 14:45 50.54158 4.27017 36904 ft 453 kts 121°
2026-05-06 14:45 50.51099 4.35658 36907 ft 453 kts 121°
2026-05-06 14:46 50.48033 4.44304 36908 ft 453 kts 121°
2026-05-06 14:46 50.44983 4.52892 36909 ft 453 kts 121°
2026-05-06 14:47 50.41910 4.61519 36911 ft 453 kts 121°
2026-05-06 14:47 50.38832 4.70127 36903 ft 453 kts 121°
2026-05-06 14:48 50.35735 4.78733 36905 ft 452 kts 121°
2026-05-06 14:48 50.32655 4.87240 36907 ft 452 kts 122°
2026-05-06 14:49 50.29557 4.95799 36901 ft 452 kts 121°
2026-05-06 14:49 50.26464 5.04337 36905 ft 451 kts 122°
2026-05-06 14:50 50.23372 5.12825 36886 ft 452 kts 122°
2026-05-06 14:50 50.20766 5.19950 36878 ft 452 kts 122°
2026-05-06 14:51 50.17134 5.29862 36883 ft 453 kts 122°
2026-05-06 14:51 50.14531 5.36941 36884 ft 453 kts 122°
2026-05-06 14:52 50.11406 5.45436 36883 ft 453 kts 122°
2026-05-06 14:52 50.07756 5.55343 36878 ft 453 kts 122°
2026-05-06 14:53 50.05127 5.62434 36886 ft 453 kts 123°
2026-05-06 14:53 50.01986 5.70857 36885 ft 453 kts 123°
2026-05-06 14:54 49.98814 5.79298 36885 ft 452 kts 123°
2026-05-06 14:54 49.95657 5.87715 36875 ft 452 kts 123°
2026-05-06 14:55 49.92498 5.96128 36865 ft 452 kts 123°
2026-05-06 14:55 49.88805 6.05898 36860 ft 451 kts 123°
2026-05-06 14:56 49.86157 6.12862 36860 ft 451 kts 123°
2026-05-06 14:56 49.83132 6.21399 36854 ft 452 kts 120°
2026-05-06 14:57 49.80269 6.30058 36854 ft 452 kts 120°
2026-05-06 14:57 49.77385 6.38718 36837 ft 452 kts 121°
2026-05-06 14:58 49.74457 6.47302 36840 ft 451 kts 121°
2026-05-06 14:58 49.71527 6.55814 36832 ft 451 kts 121°
2026-05-06 14:59 49.68588 6.64382 36832 ft 451 kts 121°
2026-05-06 14:59 49.65661 6.72897 36818 ft 451 kts 121°
2026-05-06 15:00 49.62694 6.81483 36818 ft 451 kts 121°
2026-05-06 15:00 49.59738 6.90003 36813 ft 451 kts 121°
2026-05-06 15:01 49.56782 6.98480 36817 ft 450 kts 121°
2026-05-06 15:01 49.53824 7.06937 36816 ft 450 kts 121°
2026-05-06 15:02 49.50855 7.15439 36818 ft 450 kts 121°
2026-05-06 15:02 49.47891 7.23901 36798 ft 450 kts 121°
2026-05-06 15:03 49.44903 7.32368 36812 ft 450 kts 122°
2026-05-06 15:03 49.41909 7.40817 36816 ft 450 kts 122°
2026-05-06 15:04 49.38932 7.49214 36816 ft 450 kts 122°
2026-05-06 15:04 49.35942 7.57636 36824 ft 450 kts 122°
2026-05-06 15:05 49.32937 7.66059 36802 ft 450 kts 122°
2026-05-06 15:05 49.29936 7.74433 36808 ft 451 kts 122°
2026-05-06 15:06 49.26912 7.82845 36805 ft 451 kts 122°
2026-05-06 15:06 49.23881 7.91246 36808 ft 451 kts 122°
2026-05-06 15:07 49.20846 7.99645 36784 ft 452 kts 122°
2026-05-06 15:07 49.17788 8.08085 36787 ft 453 kts 123°
2026-05-06 15:08 49.14747 8.16427 36802 ft 453 kts 123°
2026-05-06 15:08 49.11670 8.24834 36809 ft 453 kts 123°
2026-05-06 15:09 49.08616 8.33160 36817 ft 453 kts 123°
2026-05-06 15:09 49.05510 8.41604 36823 ft 453 kts 123°
2026-05-06 15:10 49.02438 8.49912 36826 ft 453 kts 123°
2026-05-06 15:10 48.98940 8.57799 36825 ft 446 kts 137°
2026-05-06 15:11 48.94185 8.63684 36830 ft 438 kts 150°
2026-05-06 15:11 48.89122 8.68871 36832 ft 439 kts 150°
2026-05-06 15:12 48.84059 8.74047 36837 ft 439 kts 149°
2026-05-06 15:12 48.79038 8.79185 36823 ft 439 kts 150°
2026-05-06 15:13 48.73987 8.84345 36838 ft 438 kts 150°
2026-05-06 15:13 48.68937 8.89472 36835 ft 437 kts 150°
2026-05-06 15:14 48.63887 8.94582 36844 ft 436 kts 150°
2026-05-06 15:14 48.58868 8.99655 36845 ft 436 kts 150°
2026-05-06 15:15 48.53827 9.04739 36833 ft 436 kts 150°
2026-05-06 15:15 48.48787 9.09810 36851 ft 435 kts 150°
2026-05-06 15:16 48.43748 9.14870 36857 ft 435 kts 150°
2026-05-06 15:16 48.38747 9.19880 36848 ft 434 kts 150°
2026-05-06 15:17 48.33723 9.24904 36853 ft 434 kts 150°
2026-05-06 15:17 48.28693 9.29913 36840 ft 433 kts 151°
2026-05-06 15:18 48.23667 9.34889 36828 ft 433 kts 150°
2026-05-06 15:18 48.18625 9.39881 36830 ft 434 kts 150°
2026-05-06 15:19 48.13619 9.44847 36806 ft 435 kts 151°
2026-05-06 15:19 48.08568 9.49843 36824 ft 435 kts 151°
2026-05-06 15:20 48.03522 9.54807 36822 ft 435 kts 151°
2026-05-06 15:20 47.98513 9.59892 36821 ft 437 kts 149°
2026-05-06 15:21 47.93640 9.65218 36822 ft 438 kts 148°
2026-05-06 15:21 47.88765 9.70597 36829 ft 438 kts 148°
2026-05-06 15:22 47.83817 9.75960 36805 ft 438 kts 149°
2026-05-06 15:22 47.78881 9.81247 36859 ft 437 kts 149°
2026-05-06 15:23 47.73940 9.86522 36876 ft 437 kts 149°
2026-05-06 15:23 47.69038 9.91754 36880 ft 437 kts 149°
2026-05-06 15:24 47.64115 9.97015 36890 ft 437 kts 149°
2026-05-06 15:24 47.59176 10.02270 36887 ft 436 kts 149°
2026-05-06 15:25 47.54244 10.07510 36851 ft 436 kts 150°
2026-05-06 15:25 47.49336 10.12711 36867 ft 437 kts 150°
2026-05-06 15:26 47.44391 10.17921 36876 ft 437 kts 150°
2026-05-06 15:26 47.39330 10.22849 36878 ft 434 kts 153°
2026-05-06 15:27 47.34158 10.27443 36889 ft 434 kts 154°
2026-05-06 15:27 47.29002 10.31983 36872 ft 434 kts 154°
2026-05-06 15:28 47.23831 10.36602 36869 ft 435 kts 154°
2026-05-06 15:28 47.18670 10.41247 36858 ft 435 kts 154°
2026-05-06 15:29 47.13512 10.45887 36851 ft 435 kts 154°
2026-05-06 15:29 47.08383 10.50471 36870 ft 434 kts 155°
2026-05-06 15:30 47.02997 10.54095 36873 ft 422 kts 168°
2026-05-06 15:30 46.97387 10.56622 36849 ft 422 kts 168°
2026-05-06 15:31 46.91779 10.59143 36855 ft 421 kts 168°
2026-05-06 15:31 46.86170 10.61670 36845 ft 421 kts 169°
2026-05-06 15:32 46.77757 10.65470 36844 ft 422 kts 169°
2026-05-06 15:32 46.72150 10.67964 36871 ft 422 kts 170°
2026-05-06 15:33 46.66494 10.70026 36866 ft 419 kts 174°
2026-05-06 15:33 46.60793 10.71753 36507 ft 417 kts 175°
2026-05-06 15:34 46.57956 10.72611 36257 ft 416 kts 174°
2026-05-06 15:34 46.55127 10.73493 36003 ft 415 kts 174°
2026-05-06 15:34 46.52317 10.74397 35752 ft 414 kts 174°
2026-05-06 15:34 46.49515 10.75246 35499 ft 407 kts 180°
2026-05-06 15:35 46.46742 10.75171 35256 ft 394 kts 193°
2026-05-06 15:35 46.44066 10.74589 35010 ft 391 kts 194°
2026-05-06 15:35 46.41386 10.73966 34779 ft 389 kts 194°
2026-05-06 15:35 46.38723 10.73341 34549 ft 387 kts 194°
2026-05-06 15:36 46.36064 10.72727 34286 ft 385 kts 194°
2026-05-06 15:36 46.33429 10.72130 33820 ft 383 kts 194°
2026-05-06 15:36 46.30804 10.71541 33213 ft 381 kts 194°
2026-05-06 15:36 46.28191 10.70962 32459 ft 381 kts 194°
2026-05-06 15:37 46.25558 10.70425 31739 ft 383 kts 189°
2026-05-06 15:37 46.22872 10.70757 31442 ft 395 kts 174°
2026-05-06 15:37 46.20238 10.72034 31194 ft 403 kts 168°
2026-05-06 15:37 46.17616 10.73451 30904 ft 401 kts 168°
2026-05-06 15:38 46.15021 10.74891 30414 ft 395 kts 168°
2026-05-06 15:38 46.12490 10.76312 29909 ft 391 kts 168°
2026-05-06 15:38 46.09963 10.77728 29361 ft 387 kts 168°
2026-05-06 15:38 46.07460 10.79124 28863 ft 381 kts 168°
2026-05-06 15:39 46.04992 10.80491 28385 ft 377 kts 168°
2026-05-06 15:39 46.02555 10.81834 27906 ft 373 kts 168°
2026-05-06 15:39 46.00141 10.83161 27418 ft 369 kts 168°
2026-05-06 15:39 45.97748 10.84474 26939 ft 366 kts 168°
2026-05-06 15:40 45.95381 10.85771 26475 ft 363 kts 167°
2026-05-06 15:40 45.93026 10.87062 26018 ft 361 kts 167°
2026-05-06 15:40 45.90680 10.88346 25553 ft 360 kts 167°
2026-05-06 15:40 45.88350 10.89617 25119 ft 358 kts 167°
2026-05-06 15:41 45.86024 10.90886 24684 ft 356 kts 167°
2026-05-06 15:41 45.83723 10.92141 24248 ft 354 kts 167°
2026-05-06 15:41 45.81420 10.93400 23836 ft 351 kts 166°
2026-05-06 15:41 45.79157 10.94638 23425 ft 348 kts 166°
2026-05-06 15:42 45.76879 10.95884 22971 ft 343 kts 166°
2026-05-06 15:42 45.74637 10.97108 22578 ft 340 kts 166°
2026-05-06 15:42 45.72510 10.98667 21718 ft 360 kts 149°
2026-05-06 15:42 45.70737 11.01322 21109 ft 375 kts 136°
2026-05-06 15:43 45.69101 11.04251 20882 ft 380 kts 135°
2026-05-06 15:43 45.67441 11.07218 20886 ft 381 kts 135°
2026-05-06 15:43 45.65883 11.10287 20889 ft 388 kts 127°
2026-05-06 15:43 45.64552 11.13673 20898 ft 389 kts 126°
2026-05-06 15:44 45.63237 11.17045 20896 ft 390 kts 126°
2026-05-06 15:44 45.61920 11.20427 20403 ft 392 kts 126°
2026-05-06 15:44 45.60568 11.23878 19378 ft 402 kts 125°
2026-05-06 15:44 45.59192 11.27378 18735 ft 404 kts 125°
2026-05-06 15:45 45.57822 11.30866 18199 ft 402 kts 124°
2026-05-06 15:45 45.56459 11.34336 17592 ft 399 kts 124°
2026-05-06 15:45 45.55117 11.37750 17034 ft 396 kts 124°
2026-05-06 15:45 45.53784 11.41140 16508 ft 387 kts 124°
2026-05-06 15:46 45.52471 11.44478 15533 ft 379 kts 124°
2026-05-06 15:46 45.51183 11.47728 14561 ft 374 kts 124°
2026-05-06 15:46 45.49912 11.50930 13658 ft 367 kts 124°
2026-05-06 15:46 45.48665 11.54069 12644 ft 361 kts 124°
2026-05-06 15:47 45.47444 11.57143 12075 ft 350 kts 124°
2026-05-06 15:47 45.46241 11.60170 11590 ft 347 kts 124°
2026-05-06 15:47 45.45068 11.63108 11117 ft 345 kts 124°
2026-05-06 15:47 45.43887 11.66061 10625 ft 343 kts 124°
2026-05-06 15:48 45.42715 11.68998 10257 ft 338 kts 124°
2026-05-06 15:48 45.41579 11.71853 10132 ft 326 kts 124°
2026-05-06 15:48 45.40486 11.74601 9997 ft 315 kts 124°
2026-05-06 15:48 45.39420 11.77278 9887 ft 305 kts 124°
2026-05-06 15:49 45.38359 11.79932 9514 ft 304 kts 124°
2026-05-06 15:49 45.37325 11.82533 9200 ft 300 kts 121°
2026-05-06 15:49 45.36673 11.85356 8587 ft 302 kts 104°
2026-05-06 15:49 45.36270 11.88354 7950 ft 301 kts 104°
2026-05-06 15:50 45.35887 11.91247 7353 ft 298 kts 104°
2026-05-06 15:50 45.35504 11.94146 6774 ft 295 kts 104°
2026-05-06 15:50 45.35123 11.97019 6366 ft 297 kts 104°
2026-05-06 15:50 45.34729 11.99977 5548 ft 312 kts 103°
2026-05-06 15:51 45.34313 12.03073 4797 ft 324 kts 103°
2026-05-06 15:51 45.33904 12.06148 4636 ft 301 kts 103°
2026-05-06 15:51 45.33562 12.08909 4461 ft 282 kts 97°
2026-05-06 15:51 45.33683 12.11664 4227 ft 271 kts 77°
2026-05-06 15:52 45.34377 12.14076 3950 ft 259 kts 58°
2026-05-06 15:52 45.35495 12.15963 3635 ft 249 kts 41°
2026-05-06 15:52 45.36763 12.17577 3321 ft 240 kts 43°
2026-05-06 15:52 45.37974 12.19120 3019 ft 227 kts 42°
2026-05-06 15:53 45.39105 12.20563 2727 ft 211 kts 43°
2026-05-06 15:53 45.40163 12.21915 2489 ft 199 kts 43°
2026-05-06 15:53 45.40798 12.22728 2325 ft 195 kts 43°
2026-05-06 15:53 45.41901 12.24138 2027 ft 182 kts 44°
2026-05-06 15:54 45.42831 12.25329 1794 ft 166 kts 45°
2026-05-06 15:54 45.43651 12.26377 1565 ft 156 kts 46°
2026-05-06 15:54 45.44439 12.27388 1356 ft 152 kts 44°
2026-05-06 15:54 45.45167 12.28322 1161 ft 149 kts 46°
2026-05-06 15:55 45.46053 12.29458 937 ft 148 kts 44°
2026-05-06 15:55 45.46783 12.30395 749 ft 147 kts 46°
2026-05-06 15:55 45.47557 12.31388 551 ft 148 kts 45°
2026-05-06 15:55 45.48338 12.32390 345 ft 144 kts 44°
2026-05-06 15:56 45.49180 12.33472 126 ft 146 kts 44°
2026-05-06 15:56 45.49274 12.33593 105 ft 145 kts 44°
2026-05-06 15:56 45.50214 12.34802 14 ft 100 kts 41°
2026-05-06 15:56 45.50623 12.35321 14 ft 39 kts 36°
2026-05-06 15:57 45.50803 12.35425 17 ft 22 kts 14°
2026-05-06 15:57 45.50862 12.35444 16 ft 4 kts 12°
2026-05-06 15:57 45.50896 12.35454 16 ft 7 kts 12°
2026-05-06 15:57 45.50956 12.35447 17 ft 11 kts 326°
2026-05-06 15:58 45.50980 12.35376 18 ft 13 kts 272°
2026-05-06 15:58 45.50935 12.35177 16 ft 19 kts 224°
2026-05-06 15:58 45.50828 12.35038 16 ft 23 kts 222°
2026-05-06 15:58 45.50747 12.34938 16 ft 24 kts 221°
2026-05-06 15:59 45.50618 12.34749 15 ft 13 kts 243°
2026-05-06 15:59 45.50605 12.34630 16 ft 12 kts 267°
2026-05-06 15:59 45.50600 12.34498 16 ft 15 kts 267°
2026-05-06 15:59 45.50582 12.34407 17 ft 15 kts 230°
2026-05-06 16:00 45.50507 12.34328 16 ft 11 kts 213°
2026-05-06 16:00 45.50493 12.34240 16 ft 8 kts 267°
2026-05-06 16:00 45.50492 12.34218 16 ft 0 kts 266°